{"data":{"norad_id":69192,"epoch":"2026-09-20T00:53:49.915392Z","epoch_age_seconds":66885,"freshness":"FRESH","line1":"1 69192U 26114L   26263.03738328  .00025020  00000+0  74853-3 0  9992","line2":"2 69192  53.1573 115.9926 0002389  39.8075 320.3103 15.34426339 19372","mean_motion":15.34426339,"eccentricity":0.0002389,"inclination_deg":53.1573,"raan_deg":115.9926,"arg_perigee_deg":39.8075,"mean_anomaly_deg":320.3103,"bstar":0.00074853,"rev_number":1937,"period_min":93.84614714959,"perigee_km":460.99069823689,"apogee_km":464.25921429959,"semimajor_km":6840.7619562682,"source":"CELESTRAK","updated_at":"2026-09-20T09:00:44.097664Z"}}